Time,TemperatureF,DewpointF,PressureIn,WindDirection,WindDirectionDegrees,WindSpeedMPH,WindSpeedGustMPH,Humidity,HourlyPrecipIn,Conditions,Clouds,dailyrainin,SoftwareType,DateUTC
2013-06-29 00:11:00,71.0,61.0,-100.00,NW,325,0.0,0.0,72,-99.99,,,-99.99,,2013-06-29 05:11:00,
2013-06-29 00:21:00,71.0,61.0,-100.00,NW,325,0.0,0.0,72,-99.99,,,-99.99,,2013-06-29 05:21:00,
2013-06-29 00:52:00,70.0,62.0,-100.00,NW,315,0.0,0.0,75,-99.99,,,-99.99,,2013-06-29 05:52:00,
2013-06-29 01:12:00,69.0,62.0,-100.00,WNW,285,0.0,0.0,79,-99.99,,,-99.99,,2013-06-29 06:12:00,
2013-06-29 01:22:00,69.0,62.0,-100.00,WNW,285,0.0,0.0,79,-99.99,,,-99.99,,2013-06-29 06:22:00,
2013-06-29 01:43:00,68.0,62.0,-100.00,NW,305,0.0,0.0,83,-99.99,,,-99.99,,2013-06-29 06:43:00,
2013-06-29 01:53:00,68.0,62.0,-100.00,NW,305,0.0,0.0,83,-99.99,,,-99.99,,2013-06-29 06:53:00,
2013-06-29 02:12:00,67.0,63.0,-100.00,NW,305,0.0,0.0,86,-99.99,,,-99.99,,2013-06-29 07:12:00,
2013-06-29 02:22:00,67.0,63.0,-100.00,NW,305,0.0,0.0,86,-99.99,,,-99.99,,2013-06-29 07:22:00,
2013-06-29 02:43:00,66.0,63.0,-100.00,West,280,0.0,0.0,91,-99.99,,,-99.99,,2013-06-29 07:43:00,
2013-06-29 02:53:00,66.0,63.0,-100.00,West,280,0.0,0.0,91,-99.99,,,-99.99,,2013-06-29 07:53:00,
2013-06-29 03:22:00,65.0,64.0,-100.00,West,270,0.0,0.0,97,-99.99,,,-99.99,,2013-06-29 08:22:00,
2013-06-29 03:43:00,66.0,60.0,-100.00,West,270,0.0,0.0,82,-99.99,,,-99.99,,2013-06-29 08:43:00,
2013-06-29 03:52:00,66.0,60.0,-100.00,West,270,0.0,0.0,82,-99.99,,,-99.99,,2013-06-29 08:52:00,
2013-06-29 04:12:00,66.0,64.0,-100.00,West,275,0.0,0.0,93,-99.99,,,-99.99,,2013-06-29 09:12:00,
2013-06-29 04:22:00,66.0,64.0,-100.00,West,275,0.0,0.0,93,-99.99,,,-99.99,,2013-06-29 09:22:00,
2013-06-29 04:53:00,66.0,64.0,-100.00,West,280,0.0,0.0,94,-99.99,,,-99.99,,2013-06-29 09:53:00,
2013-06-29 05:22:00,66.0,64.0,-100.00,NW,315,0.0,0.0,94,-99.99,,,-99.99,,2013-06-29 10:22:00,
2013-06-29 05:43:00,65.0,64.0,-100.00,WNW,290,0.0,0.0,95,-99.99,,,-99.99,,2013-06-29 10:43:00,
2013-06-29 05:53:00,65.0,64.0,-100.00,WNW,290,0.0,0.0,95,-99.99,,,-99.99,,2013-06-29 10:53:00,
2013-06-29 06:11:00,65.0,64.0,-100.00,WNW,300,0.0,0.0,96,-99.99,,,-99.99,,2013-06-29 11:11:00,
2013-06-29 06:23:00,65.0,64.0,-100.00,WNW,300,0.0,0.0,96,-99.99,,,-99.99,,2013-06-29 11:23:00,
2013-06-29 06:43:00,66.0,66.0,-100.00,West,265,0.0,0.0,98,-99.99,,,-99.99,,2013-06-29 11:43:00,
2013-06-29 06:53:00,66.0,66.0,-100.00,West,265,0.0,0.0,98,-99.99,,,-99.99,,2013-06-29 11:53:00,
2013-06-29 07:12:00,68.0,65.0,-100.00,NW,315,0.0,0.0,91,-99.99,,,-99.99,,2013-06-29 12:12:00,
2013-06-29 07:22:00,68.0,65.0,-100.00,NW,315,0.0,0.0,91,-99.99,,,-99.99,,2013-06-29 12:22:00,
2013-06-29 07:53:00,70.0,66.0,-100.00,NNW,335,0.0,0.0,86,-99.99,,,-99.99,,2013-06-29 12:53:00,
2013-06-29 08:23:00,71.0,66.0,-100.00,NW,320,0.0,0.0,86,-99.99,,,-99.99,,2013-06-29 13:23:00,
2013-06-29 08:53:00,72.0,67.0,-100.00,NW,320,0.0,0.0,84,-99.99,,,-99.99,,2013-06-29 13:53:00,
2013-06-29 09:23:00,72.0,67.0,-100.00,NW,320,0.0,0.0,86,-99.99,,,-99.99,,2013-06-29 14:23:00,
2013-06-29 09:44:00,71.0,66.0,-100.00,NNW,335,0.0,0.0,85,-99.99,,,-99.99,,2013-06-29 14:44:00,
2013-06-29 09:53:00,71.0,66.0,-100.00,NNW,335,0.0,0.0,85,-99.99,,,-99.99,,2013-06-29 14:53:00,
2013-06-29 10:22:00,71.0,67.0,-100.00,NW,305,0.0,0.0,85,-99.99,,,-99.99,,2013-06-29 15:22:00,
2013-06-29 10:53:00,73.0,66.0,-100.00,NNW,335,0.0,0.0,80,-99.99,,,-99.99,,2013-06-29 15:53:00,
2013-06-29 11:12:00,76.0,66.0,-100.00,NW,325,0.0,0.0,71,-99.99,,,-99.99,,2013-06-29 16:12:00,
2013-06-29 11:22:00,76.0,66.0,-100.00,NW,325,0.0,0.0,71,-99.99,,,-99.99,,2013-06-29 16:22:00,
2013-06-29 11:33:00,77.0,67.0,-100.00,NW,310,0.0,0.0,73,-99.99,,,-99.99,,2013-06-29 16:33:00,
2013-06-29 12:23:00,78.0,65.0,-100.00,NNW,335,0.0,0.0,64,-99.99,,,-99.99,,2013-06-29 17:23:00,
2013-06-29 12:42:00,75.0,66.0,-100.00,NW,315,0.0,0.0,72,-99.99,,,-99.99,,2013-06-29 17:42:00,
2013-06-29 12:53:00,75.0,66.0,-100.00,NW,315,0.0,0.0,72,-99.99,,,-99.99,,2013-06-29 17:53:00,
2013-06-29 13:12:00,73.0,67.0,-100.00,NNW,330,0.0,0.0,80,-99.99,,,-99.99,,2013-06-29 18:12:00,
2013-06-29 13:22:00,73.0,67.0,-100.00,NNW,330,0.0,0.0,80,-99.99,,,-99.99,,2013-06-29 18:22:00,
2013-06-29 13:43:00,76.0,67.0,-100.00,NW,325,0.0,0.0,73,-99.99,,,-99.99,,2013-06-29 18:43:00,
2013-06-29 13:53:00,76.0,67.0,-100.00,NW,325,0.0,0.0,73,-99.99,,,-99.99,,2013-06-29 18:53:00,
2013-06-29 14:22:00,75.0,66.0,-100.00,NW,325,0.0,0.0,75,-99.99,,,-99.99,,2013-06-29 19:22:00,
2013-06-29 14:43:00,78.0,68.0,-100.00,NNE,25,0.0,0.0,73,-99.99,,,-99.99,,2013-06-29 19:43:00,
2013-06-29 14:54:00,78.0,68.0,-100.00,NNE,25,0.0,0.0,73,-99.99,,,-99.99,,2013-06-29 19:54:00,
2013-06-29 15:11:00,76.0,66.0,-100.00,NNW,345,0.0,0.0,69,-99.99,,,-99.99,,2013-06-29 20:11:00,
2013-06-29 15:23:00,76.0,66.0,-100.00,NNW,345,0.0,0.0,69,-99.99,,,-99.99,,2013-06-29 20:23:00,
2013-06-29 15:43:00,72.0,69.0,-100.00,West,265,0.0,0.0,90,-99.99,,,-99.99,,2013-06-29 20:43:00,
2013-06-29 15:52:00,72.0,69.0,-100.00,West,265,0.0,0.0,90,-99.99,,,-99.99,,2013-06-29 20:52:00,
2013-06-29 16:02:00,75.0,69.0,-100.00,NW,305,0.0,0.0,81,-99.99,,,-99.99,,2013-06-29 21:02:00,
2013-06-29 16:11:00,72.0,65.0,-100.00,NNE,20,0.0,0.0,78,-99.99,,,-99.99,,2013-06-29 21:11:00,
2013-06-29 16:22:00,72.0,65.0,-100.00,NNE,20,0.0,0.0,78,-99.99,,,-99.99,,2013-06-29 21:22:00,
2013-06-29 16:42:00,69.0,64.0,-100.00,NE,35,0.0,0.0,84,-99.99,,,-99.99,,2013-06-29 21:42:00,
2013-06-29 16:52:00,67.0,65.0,-100.00,NW,305,0.0,0.0,94,-99.99,,,-99.99,,2013-06-29 21:52:00,
2013-06-29 17:53:00,67.0,66.0,-100.00,NW,305,0.0,0.0,99,-99.99,,,-99.99,,2013-06-29 22:53:00,
2013-06-29 18:12:00,68.0,68.0,-100.00,NW,325,0.0,0.0,99,-99.99,,,-99.99,,2013-06-29 23:12:00,
2013-06-29 18:23:00,68.0,68.0,-100.00,NW,325,0.0,0.0,99,-99.99,,,-99.99,,2013-06-29 23:23:00,
2013-06-29 18:43:00,69.0,69.0,-100.00,NW,325,0.0,0.0,99,-99.99,,,-99.99,,2013-06-29 23:43:00,
2013-06-29 18:53:00,69.0,69.0,-100.00,NW,325,0.0,0.0,99,-99.99,,,-99.99,,2013-06-29 23:53:00,
2013-06-29 19:02:00,70.0,70.0,-100.00,WNW,295,0.0,0.0,99,-99.99,,,-99.99,,2013-06-30 00:02:00,
2013-06-29 19:12:00,70.0,69.0,-100.00,NNW,340,0.0,0.0,96,-99.99,,,-99.99,,2013-06-30 00:12:00,
2013-06-29 19:22:00,70.0,69.0,-100.00,NNW,340,0.0,0.0,96,-99.99,,,-99.99,,2013-06-30 00:22:00,
2013-06-29 19:33:00,70.0,69.0,-100.00,NNW,340,0.0,0.0,96,-99.99,,,-99.99,,2013-06-30 00:33:00,
2013-06-29 19:52:00,70.0,69.0,-100.00,North,0,0.0,0.0,96,-99.99,,,-99.99,,2013-06-30 00:52:00,
2013-06-29 20:11:00,64.0,63.0,-100.00,NNW,345,0.0,0.0,99,-99.99,,,-99.99,,2013-06-30 01:11:00,
2013-06-29 20:22:00,64.0,63.0,-100.00,NNW,345,0.0,0.0,99,-99.99,,,-99.99,,2013-06-30 01:22:00,
2013-06-29 20:44:00,64.0,64.0,-100.00,NW,325,0.0,0.0,99,-99.99,,,-99.99,,2013-06-30 01:44:00,
2013-06-29 20:53:00,64.0,64.0,-100.00,NW,325,0.0,0.0,99,-99.99,,,-99.99,,2013-06-30 01:53:00,
2013-06-29 21:11:00,64.0,64.0,-100.00,NNW,340,0.0,0.0,99,-99.99,,,-99.99,,2013-06-30 02:11:00,
2013-06-29 21:23:00,64.0,64.0,-100.00,NNW,340,0.0,0.0,99,-99.99,,,-99.99,,2013-06-30 02:23:00,
2013-06-29 21:43:00,65.0,64.0,-100.00,NNW,340,0.0,0.0,99,-99.99,,,-99.99,,2013-06-30 02:43:00,
2013-06-29 21:53:00,65.0,64.0,-100.00,NNW,340,0.0,0.0,99,-99.99,,,-99.99,,2013-06-30 02:53:00,
2013-06-29 22:12:00,65.0,64.0,-100.00,NNE,25,0.0,0.0,99,-99.99,,,-99.99,,2013-06-30 03:12:00,
2013-06-29 22:23:00,65.0,64.0,-100.00,NNE,25,0.0,0.0,99,-99.99,,,-99.99,,2013-06-30 03:23:00,
2013-06-29 22:43:00,65.0,64.0,-100.00,North,5,0.0,0.0,99,-99.99,,,-99.99,,2013-06-30 03:43:00,
2013-06-29 22:53:00,65.0,64.0,-100.00,North,5,0.0,0.0,99,-99.99,,,-99.99,,2013-06-30 03:53:00,
2013-06-29 23:12:00,64.0,64.0,-100.00,NNW,335,0.0,0.0,99,-99.99,,,-99.99,,2013-06-30 04:12:00,
2013-06-29 23:22:00,64.0,64.0,-100.00,NNW,335,0.0,0.0,99,-99.99,,,-99.99,,2013-06-30 04:22:00,
2013-06-29 23:33:00,64.0,64.0,-100.00,North,5,0.0,0.0,99,-99.99,,,-99.99,,2013-06-30 04:33:00,
2013-06-29 23:43:00,64.0,63.0,-100.00,NNW,340,0.0,0.0,99,-99.99,,,-99.99,,2013-06-30 04:43:00,
2013-06-29 23:53:00,64.0,63.0,-100.00,NNW,340,0.0,0.0,99,-99.99,,,-99.99,,2013-06-30 04:53:00,